Flag for Germany Weather past 2 weeks in Lindlar, North Rhine-Westphalia, Germany

Now
58 °F

Overcast.


Feels Like: 59 °F
Forecast: 52 / 60 °F
Wind: 3 mph from South

Location: Koeln / Bonn

Current Time: Aug 30, 2014 at 8:36:36 AM

Latest Report: Aug 30, 2014 at 8:00 AM


Visibility: 31 mi

Pressure: 30.03 "Hg

Humidity: 88%

Dew point: 55 °F

Location of LindlarLocation

Historic Weather in Lindlar — Graph

°F

Lindlar temperature yesterday

Maximum temperature yesterday: 68 °F (at 7:00 PM)
Minimum temperature yesterday: 58 °F (at 7:00 AM)
Average temperature yesterday: 63 °F

Past Weeks' High & Low Weather Summary

 TemperatureHumidityPressure
High74 °F (Aug 28, 2:00 PM)99% (Aug 27, 7:00 AM)30.10 "Hg (Aug 27, 7:00 AM)
Low45 °F (Aug 20, 6:00 AM)44% (Aug 18, 3:00 PM)29.61 "Hg (Aug 26, 6:00 AM)
Average58 °F81%29.93 "Hg
* Reported Aug 15 7:00 AM — Aug 30 7:00 AM, Lindlar, Weather by CustomWeather, © 2014

Note: Actual official high and low records may vary slightly from our data, if they occured in-between our weather recording intervals... More about our weather records

Advertising

Lindlar weather history for previous 24 hours

 ConditionsComfort  
Time TempWeatherWind HumidityBarometerVisibility
7:00 AM
Aug 30
57 °FOvercast.3 mph90%30.03 "Hg31 mi
6:00 AM58 °FOvercast.3 mph89%30.03 "Hg31 mi
5:00 AM57 °FOvercast.2 mph89%30.03 "Hg31 mi
4:00 AM59 °FOvercast.2 mph82%30.03 "Hg31 mi
3:00 AM59 °FOvercast.1 mph83%30.04 "Hg31 mi
2:00 AM61 °FOvercast.2 mph78%30.04 "Hg31 mi
1:00 AM59 °FOvercast.3 mph88%30.04 "Hg37 mi
12:00 AM60 °FOvercast.2 mph91%30.03 "Hg37 mi
9:00 PM
Aug 29
60 °FPassing clouds.1 mph90%30.01 "Hg43 mi
8:00 PM64 °FOvercast.2 mph74%29.99 "Hg43 mi
7:00 PM68 °FOvercast.5 mph68%29.99 "Hg28 mi
6:00 PM67 °FOvercast.2 mph75%29.99 "Hg25 mi
5:00 PM66 °FOvercast.3 mph77%30.00 "Hg19 mi
4:00 PM64 °FOvercast.2 mph89%30.01 "Hg11 mi
3:00 PM66 °FOvercast.5 mph80%30.01 "Hg12 mi
2:00 PM63 °FOvercast.5 mph84%30.00 "Hg12 mi
1:00 PM67 °FOvercast.3 mph83%29.99 "Hg31 mi
12:00 PM67 °FOvercast.2 mph75%30.00 "Hg31 mi
11:00 AM67 °FPartly sunny.2 mph80%30.00 "Hg31 mi
10:00 AM64 °FOvercast.2 mph89%30.00 "Hg31 mi
9:00 AM61 °FOvercast.1 mph93%30.00 "Hg31 mi
8:00 AM59 °FOvercast.1 mph94%29.99 "Hg31 mi
Weather by CustomWeather, © 2014

See weather overviewHow to use our weather pages